Weather History for Middleton, WI

Change the Weather History Date:

Monday, November 19, 2012

  Actual Average (KMSN) Record (KMSN)
Temperature  
Mean Temperature 46 °F 34 °F  
Max Temperature 53 °F 42 °F 70 °F (1930)
Min Temperature 38 °F 27 °F 3 °F (1914)
Degree Days  
Heating Degree Days 20 31  
Month to date heating degree days 495  
Since 1 July heating degree days 1208  
Cooling Degree Days 0 0  
Month to date cooling degree days 0  
Year to date cooling degree days 568  
Moisture  
Dew Point 37 °F    
Average Humidity 68    
Maximum Humidity 93    
Minimum Humidity 51    
Precipitation  
Precipitation 0.01 in 0.08 in 1.38 in (1934)
Month to date precipitation 1.53  
Year to date precipitation 31.88  
Snow  
Snow 0.00 in 0.20 in 3.20 in (1921)
Month to date snowfall 1.4  
Since 1 July snowfall 1.9  
Since 1 September snowfall 1.9  
Snow Depth -    
Sea Level Pressure  
Sea Level Pressure 30.16 in    
Wind  
Wind Speed 4 mph (SSE)    
Max Wind Speed 9 mph    
Max Gust Speed -    
Visibility 10 miles    
Events      
T = Trace of Precipitation, MM = Missing Value Source: NWS Daily Summary

Daily Weather History Graph

Daily Weather History Graph

Search for Another Location

Airport:

Trip Planner

Search our weather history database for the weather conditions in past years. The results will help you decide how hot, cold, wet, or windy it might be!

Date:

Astronomy

Nov. 19, 2012 Rise Set
Actual Time 6:56 AM CST 4:30 PM CST
Civil Twilight 6:25 AM CST 5:01 PM CST
Nautical Twilight 5:50 AM CST 5:36 PM CST
Astronomical Twilight 5:16 AM CST 6:09 PM CST
Moon 11:55 AM CST (11/19) 11:01 PM CST (11/19)
Length of Visible Light 10h 35m
Length of Day
9h 33m
Waxing Crescent, 41% of the Moon is Illuminated
Nov 19
Waxing Crescent
Nov 20
First Quarter
Nov 28
Full
Dec 6
Last Quarter
Dec 13
New

Hourly Weather History & Observations

Time (CST) Temp. Windchill Dew Point Humidity Pressure Visibility Wind Dir Wind Speed Gust Speed Precip Events Conditions
12:15 AM 46.0 °F 43.1 °F 32.5 °F 59% 30.27 in 10.0 mi South 5.8 mph - N/A   Clear
12:35 AM 45.9 °F 44.6 °F 32.5 °F 60% 30.27 in 10.0 mi South 3.5 mph - N/A   Clear
12:55 AM 46.4 °F 43.5 °F 32.9 °F 59% 30.26 in 10.0 mi South 5.8 mph - N/A   Mostly Cloudy
1:15 AM 46.4 °F 44.3 °F 33.1 °F 60% 30.25 in 10.0 mi South 4.6 mph - N/A   Scattered Clouds
1:35 AM 46.4 °F 43.5 °F 33.1 °F 60% 30.25 in 10.0 mi SSE 5.8 mph - N/A   Scattered Clouds
1:55 AM 45.7 °F 44.4 °F 33.3 °F 62% 30.25 in 10.0 mi SSE 3.5 mph - N/A   Scattered Clouds
2:15 AM 45.7 °F 44.4 °F 33.3 °F 62% 30.24 in 10.0 mi SE 3.5 mph - N/A   Clear
2:35 AM 44.8 °F 43.3 °F 33.1 °F 64% 30.24 in 10.0 mi SSE 3.5 mph - N/A   Clear
2:55 AM 44.6 °F 42.2 °F 33.3 °F 64% 30.23 in 10.0 mi South 4.6 mph - N/A   Clear
3:15 AM 45.1 °F 42.0 °F 33.4 °F 64% 30.23 in 10.0 mi South 5.8 mph - N/A   Clear
3:35 AM 45.0 °F 41.2 °F 33.3 °F 64% 30.23 in 10.0 mi South 6.9 mph - N/A   Clear
3:55 AM 40.6 °F - 32.4 °F 72% 30.23 in 10.0 mi Calm Calm - N/A   Clear
4:15 AM 40.3 °F - 33.1 °F 75% 30.23 in 10.0 mi Calm Calm - N/A   Clear
4:35 AM 39.2 °F - 32.4 °F 76% 30.23 in 10.0 mi Calm Calm - N/A   Clear
4:55 AM 38.3 °F - 32.0 °F 78% 30.22 in 10.0 mi Calm Calm - N/A   Clear
5:15 AM 39.9 °F 37.8 °F 33.1 °F 77% 30.22 in 10.0 mi SSE 3.5 mph - N/A   Clear
5:35 AM 41.2 °F - 34.7 °F 78% 30.22 in 10.0 mi Calm Calm - N/A   Clear
5:55 AM 42.4 °F - 34.0 °F 72% 30.21 in 10.0 mi Calm Calm - N/A   Clear
6:15 AM 42.4 °F 40.7 °F 34.5 °F 74% 30.21 in 10.0 mi SSE 3.5 mph - N/A   Clear
6:35 AM 43.9 °F 42.3 °F 34.3 °F 69% 30.21 in 10.0 mi SSE 3.5 mph - N/A   Clear
6:55 AM 43.9 °F 39.9 °F 34.0 °F 68% 30.21 in 10.0 mi SSE 6.9 mph - N/A   Clear
7:35 AM 44.2 °F 41.0 °F 34.2 °F 68% 30.22 in 10.0 mi South 5.8 mph - N/A   Clear
7:55 AM 45.0 °F 40.1 °F 34.0 °F 65% 30.21 in 10.0 mi South 9.2 mph - N/A   Mostly Cloudy
8:15 AM 45.5 °F 41.8 °F 34.0 °F 64% 30.21 in 10.0 mi South 6.9 mph - N/A   Scattered Clouds
8:35 AM 45.9 °F 42.3 °F 34.0 °F 63% 30.21 in 10.0 mi South 6.9 mph - N/A   Clear
8:55 AM 46.6 °F - 34.0 °F 62% 30.21 in 10.0 mi South 5.8 mph - N/A   Clear
9:15 AM 46.8 °F - 33.8 °F 61% 30.20 in 10.0 mi South 5.8 mph - N/A   Scattered Clouds
9:35 AM 47.5 °F - 34.2 °F 60% 30.21 in 10.0 mi Calm Calm - N/A   Mostly Cloudy
9:55 AM 48.2 °F - 34.0 °F 58% 30.21 in 10.0 mi South 3.5 mph - N/A   Mostly Cloudy
10:15 AM 48.7 °F - 34.2 °F 57% 30.21 in 10.0 mi SW 5.8 mph - N/A   Scattered Clouds
10:35 AM 48.4 °F - 34.3 °F 58% 30.20 in 10.0 mi South 5.8 mph - N/A   Mostly Cloudy
10:55 AM 49.3 °F - 34.3 °F 56% 30.19 in 10.0 mi South 8.1 mph - N/A   Mostly Cloudy
11:15 AM 50.0 °F - 34.3 °F 55% 30.18 in 10.0 mi South 6.9 mph - N/A   Mostly Cloudy
11:35 AM 50.5 °F - 34.5 °F 54% 30.17 in 10.0 mi South 6.9 mph - N/A   Overcast
11:55 AM 50.9 °F - 35.2 °F 55% 30.17 in 10.0 mi South 9.2 mph - N/A   Overcast
12:15 PM 51.4 °F - 35.4 °F 54% 30.15 in 10.0 mi South 6.9 mph - N/A   Overcast
12:35 PM 51.8 °F - 35.2 °F 53% 30.14 in 10.0 mi SSE 6.9 mph - N/A   Overcast
12:55 PM 51.8 °F - 35.8 °F 54% 30.14 in 10.0 mi SSE 5.8 mph - N/A   Overcast
1:15 PM 52.9 °F - 36.1 °F 53% 30.13 in 10.0 mi South 6.9 mph - N/A   Overcast
1:35 PM 53.2 °F - 36.0 °F 52% 30.13 in 10.0 mi South 6.9 mph - N/A   Overcast
1:55 PM 53.4 °F - 35.4 °F 51% 30.11 in 10.0 mi SSE 6.9 mph - N/A   Overcast
2:15 PM 53.6 °F - 36.0 °F 51% 30.11 in 10.0 mi South 8.1 mph - N/A   Overcast
2:35 PM 52.5 °F - 37.2 °F 56% 30.10 in 10.0 mi SE 8.1 mph - N/A   Overcast
2:55 PM 50.9 °F - 39.7 °F 66% 30.09 in 10.0 mi SE 5.8 mph - N/A   Overcast
3:15 PM 51.8 °F - 39.6 °F 63% 30.09 in 10.0 mi SE 3.5 mph - N/A   Overcast
3:35 PM 51.8 °F - 40.3 °F 65% 30.10 in 10.0 mi SE 3.5 mph - N/A   Overcast
3:55 PM 52.2 °F - 39.7 °F 63% 30.09 in 10.0 mi SSE 4.6 mph - N/A   Overcast
4:15 PM 52.0 °F - 39.2 °F 62% 30.09 in 10.0 mi SSE 5.8 mph - N/A   Overcast
4:35 PM 51.8 °F - 39.4 °F 63% 30.09 in 10.0 mi SSE 4.6 mph - N/A   Overcast
4:55 PM 51.6 °F - 39.2 °F 63% 30.09 in 10.0 mi SSE 3.5 mph - N/A   Overcast
5:15 PM 51.3 °F - 39.4 °F 64% 30.09 in 10.0 mi SSE 4.6 mph - N/A   Overcast
5:35 PM 50.9 °F - 40.3 °F 67% 30.09 in 10.0 mi Calm Calm - N/A   Overcast
5:55 PM 50.0 °F - 40.6 °F 70% 30.10 in 10.0 mi Calm Calm - N/A   Overcast
6:15 PM 48.4 °F - 42.6 °F 80% 30.10 in 10.0 mi Calm Calm - N/A   Overcast
6:35 PM 48.0 °F - 43.0 °F 83% 30.10 in 10.0 mi Calm Calm - N/A   Overcast
6:55 PM 47.7 °F - 44.6 °F 89% 30.10 in 7.0 mi Calm Calm - 0.01 in   Overcast
7:15 PM 47.5 °F - 44.8 °F 90% 30.10 in 7.0 mi Calm Calm - N/A   Overcast
7:35 PM 47.5 °F - 45.5 °F 93% 30.10 in 7.0 mi Calm Calm - N/A   Overcast
7:55 PM 48.2 °F - 45.3 °F 90% 30.09 in 10.0 mi SSE 3.5 mph - N/A   Overcast
8:15 PM 48.2 °F - 45.5 °F 90% 30.09 in 7.0 mi Calm Calm - N/A   Overcast
8:35 PM 48.4 °F - 45.5 °F 90% 30.09 in 7.0 mi Calm Calm - N/A   Overcast
9:15 PM 49.8 °F - 45.5 °F 85% 30.08 in 10.0 mi South 5.8 mph - N/A   Overcast
9:35 PM 49.3 °F - 45.5 °F 87% 30.09 in 10.0 mi SSW 3.5 mph - N/A   Overcast
9:55 PM 49.1 °F - 45.5 °F 87% 30.08 in 10.0 mi South 4.6 mph - N/A   Overcast
10:15 PM 49.3 °F - 45.0 °F 85% 30.08 in 10.0 mi South 4.6 mph - N/A   Overcast
10:35 PM 49.5 °F - 44.2 °F 82% 30.08 in 10.0 mi SSW 4.6 mph - N/A   Overcast
10:55 PM 49.3 °F - 44.1 °F 82% 30.08 in 10.0 mi Calm Calm - N/A   Overcast
11:15 PM 49.5 °F - 44.1 °F 82% 30.08 in 10.0 mi Calm Calm - N/A   Overcast
11:35 PM 49.1 °F - 44.4 °F 84% 30.08 in 7.0 mi Calm Calm - N/A   Overcast
11:55 PM 49.1 °F - 44.6 °F 84% 30.08 in 7.0 mi Calm Calm - N/A   Overcast